Volver al catálogo

STARLINK-36081

ActivoComunicacionesVLEO
NORAD 67498·PAYLOAD·🇺🇸 United States

Lanzado Jan 18, 2026 desde Cape Canaveral Space Force Station

Loading…

Próximos Pases (próximas 24 horas)

TLE

ActualizadoSource: CelesTrak SupGP

Época: Sep 14, 2026, 21:14 UTC

1 67498C 26012F   26257.88520833 -.00021504  00000+0 -77892-3 0  2570
2 67498  43.0010 326.0754 0001465 268.3085 151.0259 15.27586284    11

Sigue STARLINK-36081 en tiempo real con AllMySat

Download on the App Store